Change the Weather History Date:

Tuesday, February 12, 2013

  Actual Average Record
Temperature  
Mean Temperature 29 °F 26 °F  
Max Temperature 31 °F 32 °F 52 °F (1984)
Min Temperature 27 °F 21 °F -29 °F (1899)
Degree Days  
Heating Degree Days 36 39  
Month to date heating degree days 511 472  
Since 1 July heating degree days 3824 4144  
Cooling Degree Days 0 0  
Month to date cooling degree days 0 0  
Year to date cooling degree days 0 0  
Moisture  
Dew Point 20 °F    
Average Humidity 69    
Maximum Humidity 75    
Minimum Humidity 63    
Precipitation  
Precipitation T in 0.06 in 0.60 in (1924)
Month to date precipitation 1.92 0.71  
Year to date precipitation 7.40 2.74  
Snow  
Snow T in 0.70 in 3.90 in (1969)
Month to date snowfall 26.3 9.2  
Since 1 July snowfall 65.9 72.3  
Snow Depth 6.00 in    
Sea Level Pressure  
Sea Level Pressure 30.01 in    
Wind  
Wind Speed 11 mph (WSW)    
Max Wind Speed 20 mph    
Max Gust Speed 28 mph    
Visibility 10 miles    
Events Snow    
T = Trace of Precipitation, MM = Missing Value Source: NWS Daily Summary

Daily Weather History Graph

Daily Weather History Graph

Search for Another Location

Airport or City:

Trip Planner

Search our weather history database for the weather conditions in past years. The results will help you decide how hot, cold, wet, or windy it might be!

Date:

Astronomy

Feb. 12, 2013 Rise Set
Actual Time 7:46 AM EST 6:12 PM EST
Civil Twilight 7:17 AM EST 6:41 PM EST
Nautical Twilight 6:43 AM EST 7:15 PM EST
Astronomical Twilight 6:10 AM EST 7:48 PM EST
Moon 8:37 AM EST (2/12) 9:19 PM EST (2/12)
Length of Visible Light 11h 24m
Length of Day
10h 25m
Waxing Crescent, 7% of the Moon is Illuminated
Feb 12
Waxing Crescent
Feb 17
First Quarter
Feb 25
Full
Mar 4
Last Quarter
Mar 11
New

Hourly Weather History & Observations

Time (EST) Temp. Windchill Dew Point Humidity Pressure Visibility Wind Dir Wind Speed Gust Speed Precip Events Conditions
5:55 AM 30.2 °F 20.8 °F 21.2 °F 69% 30.00 in 10.0 mi West 11.5 mph - N/A   Overcast
6:55 AM 30.2 °F 20.2 °F 21.2 °F 69% 30.01 in 10.0 mi West 12.7 mph - N/A   Overcast
7:55 AM 30.2 °F 22.6 °F 21.2 °F 69% 30.01 in 10.0 mi West 8.1 mph - N/A   Overcast
8:55 AM 28.9 °F 19.8 °F 21.0 °F 72% 30.04 in 10.0 mi West 10.4 mph - N/A   Overcast
9:55 AM 28.9 °F 19.8 °F 21.0 °F 72% 30.06 in 9.0 mi West 10.4 mph - 0.00 in Snow Light Snow
10:55 AM 28.9 °F 21.9 °F 21.0 °F 72% 30.06 in 8.0 mi WNW 6.9 mph - 0.00 in Snow Light Snow
11:55 AM 28.9 °F 18.6 °F 21.0 °F 72% 30.05 in 9.0 mi West 12.7 mph 17.3 mph 0.00 in Snow Light Snow
12:55 PM 28.0 °F 17.0 °F 19.9 °F 72% 30.06 in 10.0 mi West 13.8 mph 18.4 mph 0.00 in   Overcast
1:55 PM 28.0 °F 19.3 °F 19.9 °F 72% 30.01 in 9.0 mi West 9.2 mph - 0.00 in Snow Light Snow
2:55 PM 27.0 °F 17.3 °F 19.0 °F 72% 30.00 in 9.0 mi West 10.4 mph - 0.00 in Snow Light Snow
3:55 PM 27.0 °F 15.6 °F 19.0 °F 72% 30.00 in 10.0 mi WSW 13.8 mph - 0.00 in   Overcast
4:55 PM 28.0 °F 18.1 °F 19.0 °F 69% 30.01 in 10.0 mi WSW 11.5 mph - N/A   Overcast
5:55 PM 28.0 °F 20.0 °F 18.0 °F 66% 30.00 in 10.0 mi WSW 8.1 mph - N/A   Overcast
6:55 PM 28.0 °F 19.3 °F 19.9 °F 72% 30.00 in 10.0 mi WSW 9.2 mph - N/A   Overcast
7:55 PM 28.9 °F 19.2 °F 19.9 °F 69% 29.98 in 10.0 mi WSW 11.5 mph - N/A   Overcast
8:55 PM 28.9 °F 21.9 °F 21.0 °F 72% 29.97 in 10.0 mi SW 6.9 mph - N/A   Overcast
9:55 PM 28.9 °F 21.9 °F 21.0 °F 72% 29.95 in 10.0 mi SW 6.9 mph - N/A   Overcast
10:55 PM 30.0 °F 22.4 °F 21.9 °F 72% 29.94 in 10.0 mi WSW 8.1 mph - N/A   Overcast
11:55 PM 30.0 °F 24.1 °F 21.9 °F 72% 29.93 in 10.0 mi WSW 5.8 mph - N/A   Overcast